Weather observations for the past three days for
Manistique, Schoolcraft County Airport
Imperial (Metric)
Date Time (edt) Wind (mph) Vis. (mi.) Weather Sky Cond. Temperature (ºF) Relative Humidity Wind Chill (°F) Heat Index (°F) Pressure Precipitation (in)
Air Dwpt 6 hour altimeter (in) sea level (mb) 1 hr 3 hr 6 hr
Max. Min.
17 23:15 NW 6 10.00 Fair CLR 53.6 50.4 89% 30.08 0.0
17 22:55 NW 5 10.00 Fair CLR 54.3 50.5 87% 30.08 0.0
17 22:35 NW 5 10.00 Fair CLR 54.5 50.5 87% 30.08 0.0
17 22:15 NW 6 10.00 Fair CLR 55 50.9 86% 30.08 0.0
17 21:55 NW 5 10.00 Fair CLR 56.3 50.9 82% 30.08 0.0
17 21:35 NW 8 10.00 Fair CLR 57.4 51.1 80% 30.07 0.0
17 21:15 NW 9 10.00 Fair CLR 58.1 51.8 80% 30.06 0.0
17 20:55 NW 9 10.00 Fair CLR 59 51.8 77% 30.06 0.0
17 20:35 NW 8 10.00 Partly Cloudy SCT050 59.5 52.2 77% 30.05 0.0
17 20:15 NW 8 10.00 Mostly Cloudy BKN050 59.9 52.3 76% 30.05 0.0
17 19:55 N 13 G 17 10.00 Mostly Cloudy BKN046 60.8 52.2 70 59.9 73% 30.05 0.0
17 19:35 N 9 G 21 10.00 Mostly Cloudy SCT034 BKN046 59.9 52 75% 30.04 0.0
17 19:15 NW 15 G 23 10.00 Mostly Cloudy SCT026 SCT036 BKN044 60.8 52.2 73% 30.04 0.0
17 18:55 N 14 G 22 10.00 Mostly Cloudy BKN040 63 52.5 69% 30.03 0.0
17 18:35 NW 12 G 18 10.00 Mostly Cloudy SCT027 BKN038 61.7 52.3 72% 30.03 0.0
17 18:15 NW 15 G 21 10.00 Mostly Cloudy SCT029 BKN034 63.1 52 67% 30.02 0.0
17 17:55 NW 20 G 26 10.00 Mostly Cloudy BKN030 64.6 52 64% 30.02 0.0
17 17:35 NW 12 G 22 10.00 Mostly Cloudy BKN029 65.3 52.9 64% 30.01 0.0
17 17:15 NW 15 G 22 10.00 Partly Cloudy SCT029 SCT035 64.9 52.5 64% 30.01 0.0
17 16:55 N 18 G 28 10.00 Partly Cloudy SCT025 SCT033 66 53.1 63% 30 0.0
17 16:35 N 17 G 23 10.00 Overcast BKN023 OVC030 64.9 54.7 70% 29.99 0.0
17 16:15 NW 17 G 25 10.00 Mostly Cloudy BKN025 BKN030 65.8 54 66% 29.99 0.0
17 15:55 NW 18 G 26 10.00 Mostly Cloudy SCT029 SCT039 BKN060 66.9 54.5 65% 29.98 0.0
17 15:35 NW 18 G 26 10.00 Mostly Cloudy SCT029 BKN037 BKN043 65.7 53.6 65% 29.97 0.0
17 15:15 N 15 G 23 10.00 Mostly Cloudy SCT031 SCT036 BKN045 66.9 53.2 62% 29.96 0.0
17 14:55 NW 13 G 25 10.00 Mostly Cloudy BKN031 BKN044 BKN055 65.7 53.2 64% 29.96 0.0
17 14:35 NW 15 G 24 10.00 Mostly Cloudy SCT033 SCT041 BKN075 65.7 52.9 64% 29.94 0.0
17 14:15 N 15 G 24 10.00 Mostly Cloudy SCT035 BKN055 BKN075 68 54 61% 29.94 0.0
17 13:55 NW 13 G 21 10.00 Mostly Cloudy BKN034 BKN050 BKN065 66 52.9 69.4 59.2 63% 29.94 0.0
17 13:35 NW 14 G 22 10.00 Mostly Cloudy BKN032 BKN042 BKN070 67.6 54.1 62% 29.94 0.0
17 13:15 NW 8 10.00 Mostly Cloudy SCT032 SCT042 BKN070 67.1 55.8 67% 29.93 0.0
17 12:55 NW 16 G 21 10.00 Partly Cloudy SCT032 SCT042 SCT050 68.9 54.7 61% 29.93 0.0
17 12:35 NW 16 G 25 10.00 Mostly Cloudy SCT034 SCT040 BKN090 68.5 54.7 61% 29.93 0.0
17 12:15 NW 10 G 18 10.00 Mostly Cloudy SCT032 BKN050 BKN090 67.3 54.3 63% 29.93 0.0
17 11:55 NW 14 G 20 10.00 Overcast SCT030 BKN048 OVC100 64.9 53.1 66% 29.93 0.0
17 11:35 NW 14 G 23 10.00 Overcast SCT027 BKN048 OVC100 66 53.8 65% 29.92 0.0
17 11:15 NW 10 G 18 10.00 Mostly Cloudy SCT025 BKN030 BKN039 67.8 56.3 67% 29.92 0.0
17 10:55 NW 12 G 21 10.00 Partly Cloudy SCT023 SCT029 SCT035 65.5 54.7 68% 29.92 0.0
17 10:35 NW 12 G 21 10.00 Mostly Cloudy BKN023 BKN035 65.7 56.3 72% 29.92 0.0
17 10:15 N 15 G 21 10.00 Overcast OVC019 66.2 56.7 72% 29.92 0.0
17 09:55 NW 14 G 18 10.00 Mostly Cloudy BKN015 64.8 57.7 78% 29.91 0.0
17 09:35 NW 14 G 18 10.00 Mostly Cloudy BKN013 63.9 58.3 82% 29.9 0.0
17 09:15 NW 10 10.00 Partly Cloudy SCT011 63.9 59.2 85% 29.9 0.0
17 08:35 NW 8 10.00 Fair CLR 60.8 57.4 89% 29.89 0.0
17 08:15 NW 9 10.00 Fair CLR 59.9 57.2 91% 29.89 0.0
17 07:55 NW 8 10.00 Fair CLR 59 56.7 59 52.3 92% 29.89 0.0
17 07:35 NW 6 10.00 Fair CLR 58.3 56.3 93% 29.88 0.0
17 07:15 NW 3 10.00 Fair CLR 57.6 55.9 94% 29.88 0.0
17 06:55 NW 5 10.00 Fair CLR 57.2 55.8 95% 29.88 0.0
17 06:35 NW 5 10.00 Partly Cloudy SCT065 57.2 55.8 95% 29.87 0.0
17 06:15 NW 6 10.00 Partly Cloudy SCT060 SCT080 57.4 56.5 97% 29.86 0.0
17 05:55 NW 3 10.00 Mostly Cloudy SCT060 BKN080 56.7 56.1 98% 29.86 0.0
17 05:35 NW 3 10.00 Partly Cloudy SCT090 SCT110 56.8 56.1 97% 29.86 0.0
17 05:15 Calm 10.00 Mostly Cloudy SCT065 SCT090 BKN110 57.6 57.2 99% 29.85 0.0
17 04:55 W 3 10.00 Partly Cloudy SCT065 SCT110 56.3 55.8 98% 29.85 0.0
17 04:35 W 3 10.00 Partly Cloudy SCT070 SCT075 56.3 55.6 97% 29.85 0.0
17 04:15 W 3 10.00 Partly Cloudy SCT060 SCT080 SCT090 56.7 56.1 98% 29.85 0.0
17 03:55 W 3 10.00 Mostly Cloudy BKN060 BKN080 BKN090 56.7 56.1 98% 29.85 0.0
17 03:35 Calm 10.00 Overcast SCT070 OVC080 55.9 55.4 98% 29.85 0.0
17 03:15 Calm 10.00 Overcast OVC090 53.8 53.4 99% 29.85 0.0
17 02:55 Calm 5.00 Fog/Mist BKN090 52.7 52.2 98% 29.86 0.0
17 02:35 Calm 10.00 Fair CLR 52.3 52 99% 29.85 0.0
17 02:15 Calm 4.00 Fog/Mist CLR 53.4 52.9 98% 29.85 0.0
17 01:55 Calm 1.00 Fog/Mist VV007 54.5 54 69.8 52.9 98% 29.85 0.0 0.01
17 01:35 Calm 10.00 Fair CLR 53.6 53.1 98% 29.84 0.0
17 01:15 Calm 4.00 Fog/Mist CLR 56.7 56.1 98% 29.85 0.0
17 00:55 Calm 10.00 Fair CLR 56.7 56.3 99% 29.84 0.0
17 00:35 Calm 10.00 Fair CLR 56.7 55.9 97% 29.84 0.0
17 00:15 NW 3 10.00 Fair CLR 56.7 55.6 96% 29.84 0.0
16 23:55 NW 3 10.00 Fair CLR 58.8 57.2 94% 29.84 0.0
16 23:35 NW 3 10.00 Fair CLR 59.9 58.5 95% 29.83 0.0
16 23:15 NW 5 10.00 Fair CLR 59.4 58.5 97% 29.83 0.0
16 22:55 NW 5 10.00 Fair CLR 60.8 59 94% 29.83 0.0 0.01
16 22:35 N 5 10.00 Fair CLR 60.8 59.2 94% 29.83 0.0
16 22:15 N 5 10.00 Fair CLR 61.9 59.9 93% 29.83 0.0
16 21:55 NW 6 10.00 Light Rain SCT070 SCT110 62.8 60.1 91% 29.83 0.0 0.01
16 21:35 NW 3 10.00 Overcast SCT075 BKN085 OVC110 64.8 60.3 85% 29.83 0.0 0.01
16 21:15 NW 6 10.00 Rain SCT050 SCT070 OVC085 65.8 59.7 81% 29.83 0.0
16 20:55 NW 5 10.00 Light Rain BKN050 OVC070 66.2 62.2 87% 29.83 0.0
16 20:35 NW 5 10.00 Light Rain BKN050 BKN060 OVC090 68.7 60.1 74% 29.82 0.0
16 20:15 NW 3 10.00 Overcast BKN060 BKN065 OVC090 69.3 59.4 71% 29.81 0.0
16 19:55 NW 6 10.00 Overcast SCT060 OVC080 69.8 59.5 79 69.8 70% 29.8 0.0
16 19:35 NW 7 10.00 Mostly Cloudy SCT065 BKN090 BKN110 70.5 58.8 67% 29.8 0.0
16 19:15 NW 9 10.00 Mostly Cloudy SCT065 SCT080 BKN090 72 60.1 66% 29.8 0.0
16 18:55 NW 8 10.00 Mostly Cloudy BKN100 73.4 59.5 62% 29.8 0.0
16 18:35 NW 7 10.00 Overcast SCT070 SCT075 OVC100 73 60.1 64% 29.8 0.0
16 18:15 W 3 10.00 Overcast SCT060 BKN075 OVC095 73 61.2 66% 29.79 0.0
16 17:55 SW 6 10.00 Overcast SCT075 OVC095 72 61.9 71% 29.79 0.0
16 17:35 SW 10 10.00 Mostly Cloudy SCT049 BKN075 BKN120 73.9 62.6 68% 29.78 0.0
16 17:15 S 10 10.00 Mostly Cloudy SCT049 BKN110 73.2 64.8 75% 29.78 0.0
16 16:55 SW 6 10.00 Overcast OVC100 75.6 62.2 63% 78 29.78 0.0
16 16:35 S 6 10.00 Overcast SCT070 OVC100 72 64 76% 29.77 0.0
16 16:15 S 6 10.00 Light Rain SCT060 BKN090 OVC120 70.7 64 80% 29.77 0.0
16 15:55 SW 5 10.00 Overcast SCT060 BKN100 OVC120 70 64.6 83% 29.76 0.0
16 15:35 SW 8 10.00 Overcast SCT050 SCT070 OVC100 70.7 64.6 81% 29.76 0.0
16 15:15 S 8 10.00 Mostly Cloudy BKN048 BKN060 BKN075 72 65.1 79% 29.76 0.0
16 14:55 S 9 10.00 Mostly Cloudy SCT046 BKN050 BKN075 71.6 63.9 77% 29.76 0.0
16 14:35 S 7 10.00 Mostly Cloudy SCT042 BKN050 BKN065 73 63.7 73% 29.76 0.0
16 14:15 NW 6 10.00 Mostly Cloudy SCT042 BKN050 78.8 60.1 53% 80 29.75 0.0
16 13:55 NW 7 10.00 Mostly Cloudy SCT038 BKN046 76.8 59.7 77.4 61.7 56% 79 29.76 0.0 0.01
16 13:35 NW 8 10.00 Partly Cloudy SCT038 76.1 61.5 61% 78 29.76 0.0
16 13:15 NW 8 10.00 Partly Cloudy SCT032 SCT039 76.3 61 59% 78 29.76 0.0
16 12:55 NW 7 10.00 Mostly Cloudy SCT030 BKN037 74.1 60.8 63% 29.76 0.0
16 12:35 W 7 10.00 Mostly Cloudy BKN028 BKN034 BKN040 73.2 62.4 69% 29.76 0.0
16 12:15 N 6 10.00 Overcast BKN025 OVC034 73.2 62.1 68% 29.76 0.0
16 11:55 N 8 10.00 Partly Cloudy SCT025 71.8 61 69% 29.76 0.0
16 11:35 N 8 10.00 Partly Cloudy SCT019 SCT026 70 61 73% 29.76 0.0
16 11:15 N 6 10.00 Mostly Cloudy BKN017 69.6 61.3 75% 29.76 0.0
16 10:55 N 6 10.00 Overcast OVC015 67.3 60.3 78% 29.75 0.0 0.01 0.01
16 10:35 N 10 G 16 10.00 Mostly Cloudy BKN015 67.1 60.3 79% 29.75 0.0 0.01
16 10:15 NW 9 10.00 Partly Cloudy SCT017 66.7 60.3 80% 29.74 0.0 0.01
16 09:55 NW 10 10.00 Partly Cloudy SCT017 68 61 78% 29.74 0.0
16 09:35 N 10 10.00 Fair CLR 67.1 59.5 77% 29.73 0.0
16 09:15 N 7 10.00 Fair CLR 66 60.1 81% 29.72 0.0
16 08:55 N 6 10.00 Fair CLR 64.4 59.4 84% 29.72 0.0
16 08:35 N 7 10.00 Fair CLR 63.5 59.4 86% 29.72 0.0
16 08:15 N 9 10.00 Fair CLR 62.4 59 89% 29.71 0.0
16 07:55 N 7 10.00 Fair CLR 61.3 59 67.1 59.2 92% 29.7 0.0
16 07:35 NW 7 10.00 Fair CLR 60.6 59 94% 29.7 0.0
16 07:15 N 7 10.00 Fair CLR 59.9 59 97% 29.69 0.0
16 06:55 NW 8 10.00 Fair CLR 59.4 58.6 97% 29.69 0.0
16 06:35 NW 8 10.00 Fair CLR 59.2 58.6 98% 29.69 0.0
16 06:15 NW 5 10.00 Fair CLR 59.5 59 98% 29.69 0.0
16 05:55 N 8 10.00 Fair CLR 60.1 59.4 97% 29.69 0.0
16 05:35 N 6 10.00 Fair CLR 60.8 59.9 97% 29.69 0.0
16 05:15 N 7 10.00 Partly Cloudy SCT004 SCT010 SCT014 61.9 60.8 96% 29.69 0.0
16 04:55 N 9 10.00 Overcast BKN004 OVC008 63.3 62.6 98% 29.69 0.0
16 04:35 NW 9 10.00 Overcast OVC006 65.1 64.4 98% 29.68 0.0
16 04:15 NW 8 10.00 Overcast OVC006 65.5 64.9 98% 29.66 0.0
16 03:55 NW 9 7.00 Overcast BKN006 OVC012 65.8 65.3 98% 29.66 0.0
16 03:35 NW 9 10.00 Overcast OVC006 66.2 65.7 98% 29.66 0.0
16 03:15 NW 9 10.00 Overcast BKN004 OVC014 66.7 66.2 98% 29.66 0.0
16 02:55 NW 7 7.00 Overcast OVC002 67.1 66.4 98% 29.65 0.0
16 02:35 NW 5 1.50 Fog/Mist OVC002 67.1 66.4 98% 29.65 0.0
16 02:15 NW 6 1.00 Fog/Mist OVC002 66.7 66.2 98% 29.65 0.0
16 01:55 Calm 0.75 Fog/Mist OVC002 66.9 66.4 70.5 66 98% 29.65 0.0 0.4
16 01:35 Calm 1.00 Fog/Mist OVC005 66.2 65.7 98% 29.65 0.0
16 01:15 W 3 4.00 Fog/Mist OVC003 66.4 65.8 98% 29.64 0.0
16 00:55 Calm 1.25 Fog/Mist OVC003 66.4 65.8 98% 29.63 0.0
16 00:35 Calm 2.00 Fog/Mist OVC003 66.4 66 99% 29.62 0.0
16 00:15 Calm 10.00 Partly Cloudy SCT008 SCT024 67.6 67.1 98% 29.63 0.0
15 23:55 S 3 10.00 Overcast BKN008 OVC024 68.2 67.5 98% 29.64 0.0
15 23:35 Calm 10.00 Overcast BKN008 OVC029 67.6 67.1 98% 29.64 0.0
15 23:15 Calm 10.00 Mostly Cloudy BKN029 68 67.3 98% 29.66 0.0
15 22:55 Calm 10.00 Partly Cloudy SCT110 67.5 66.9 98% 29.65 0.0 0.01 0.4
15 22:35 N 3 10.00 Partly Cloudy SCT070 SCT090 SCT120 67.6 67.1 98% 29.64 0.0 0.01
15 22:15 Calm 7.00 Light Rain SCT040 BKN070 OVC080 68.4 67.8 98% 29.65 0.0 0.01
15 21:55 Calm 3.00 Light Rain SCT006 BKN043 OVC075 68.5 67.6 97% 29.64 0.0 0.39
15 21:35 W 5 5.00 Light Rain BKN006 OVC013 69.4 68.7 98% 29.65 0.0 0.22
15 21:15 NW 5 2.50 Heavy Rain OVC004 69.6 68.9 98% 29.68 0.0 0.14
15 20:55 S 5 7.00 Overcast BKN006 BKN039 OVC095 69.3 68.5 98% 29.63 0.0
15 20:35 S 6 7.00 Light Drizzle SCT006 BKN041 OVC110 69.6 68.7 97% 29.63 0.0
15 20:15 S 5 10.00 Light Rain BKN043 OVC060 70.2 69.1 96% 29.65 0.0
15 19:55 S 5 10.00 Light Rain BKN050 BKN060 OVC070 70.7 68.9 77.7 70.7 94% 29.66 0.0
15 19:35 SW 6 10.00 Mostly Cloudy SCT050 BKN110 71.6 68.4 90% 29.67 0.0
15 19:15 SW 3 10.00 Mostly Cloudy BKN110 70.9 68 91% 29.67 0.0
15 18:55 S 3 10.00 Mostly Cloudy BKN100 71.1 66.9 87% 29.68 0.0
15 18:35 S 6 10.00 Partly Cloudy SCT110 71.8 66.4 83% 29.68 0.0
15 18:15 S 7 10.00 Partly Cloudy SCT110 73 65.7 78% 29.69 0.0
15 17:55 SW 7 10.00 Fair CLR 74.1 65.5 75% 29.7 0.0
15 17:35 SW 8 10.00 Fair CLR 75.4 66 73% 77 29.71 0.0
15 17:15 SW 9 10.00 Fair CLR 75.4 66.2 73% 77 29.72 0.0
15 16:55 S 6 10.00 Fair CLR 73.9 67.3 80% 29.72 0.0
15 16:35 S 8 10.00 Fair CLR 75.7 67.8 77% 77 29.73 0.0
15 16:15 S 8 10.00 Fair CLR 74.8 68.2 80% 29.72 0.0
15 15:55 SW 9 10.00 Fair CLR 73.8 67.1 80% 29.74 0.0
15 15:35 S 12 10.00 Fair CLR 76.8 67.1 72% 79 29.75 0.0
15 15:15 S 8 10.00 Fair CLR 77.5 66.9 70% 79 29.75 0.0
15 14:55 S 10 10.00 Fair CLR 76.8 68.4 75% 78 29.76 0.0
15 14:35 S 10 10.00 Fair CLR 76.8 68 74% 78 29.76 0.0
15 14:15 S 9 10.00 Fair CLR 76.6 68.2 75% 78 29.77 0.0
15 13:55 S 8 10.00 Fair CLR 77 67.6 81.7 67.1 73% 79 29.77 0.0
15 13:35 SW 10 10.00 Fair CLR 76.3 68.5 77% 78 29.78 0.0
15 13:15 SW 9 10.00 Fair CLR 77.5 69.3 76% 79 29.79 0.0
15 12:55 S 6 10.00 Fair CLR 79.9 70.2 72% 83 29.78 0.0
15 12:35 S 6 10.00 Fair CLR 79.5 69.4 71% 82 29.77 0.0
15 12:15 S 6 10.00 Fair CLR 77.5 69.1 75% 79 29.79 0.0
15 11:55 S 6 10.00 Fair CLR 77.4 70 78% 79 29.79 0.0
15 11:35 Calm 10.00 Fair CLR 81.3 69.4 67% 85 29.79 0.0
15 11:15 Calm 10.00 Fair CLR 80.6 65.5 60% 83 29.78 0.0
15 10:55 Calm 10.00 Fair CLR 77.7 70.5 79% 80 29.78 0.0
15 10:35 Calm 10.00 Fair CLR 77.9 68 72% 80 29.79 0.0
15 10:15 Calm 10.00 Fair CLR 76.8 68.9 77% 78 29.79 0.0
15 09:55 Calm 10.00 Fair CLR 74.8 68 79% 29.79 0.0
15 09:35 NW 3 10.00 Fair CLR 73.8 68.2 83% 29.79 0.0
15 09:15 NW 3 10.00 Fair CLR 72 68.4 89% 29.8 0.0
15 08:55 NW 5 10.00 Fair CLR 70.3 67.6 91% 29.8 0.0
15 08:35 N 3 10.00 Fair CLR 68.9 66.9 93% 29.79 0.0
15 08:15 NW 5 10.00 Fair CLR 67.6 66.6 96% 29.79 0.0
15 07:55 NW 5 10.00 Partly Cloudy SCT003 66.4 65.8 66.4 59.9 98% 29.79 0.0
15 07:35 N 3 5.00 Fog/Mist SCT003 65.5 64.9 98% 29.79 0.0
15 07:15 NW 5 10.00 Fair CLR 65.8 65.3 98% 29.79 0.0
15 06:55 NW 3 10.00 Fair CLR 63.5 63 98% 29.78 0.0
15 06:35 Calm 7.00 Fair CLR 60.6 60.3 99% 29.79 0.0
15 06:15 W 3 4.00 Fog/Mist CLR 61.2 60.8 99% 29.79 0.0
15 05:55 Calm 7.00 Fair CLR 61.3 60.8 98% 29.79 0.0
15 05:35 W 3 7.00 Fair CLR 61.9 61.3 98% 29.79 0.0
15 05:15 Calm 5.00 Fog/Mist CLR 62.8 62.2 98% 29.78 0.0
15 04:55 W 5 10.00 Fair CLR 63.3 62.8 98% 29.77 0.0
15 04:35 W 3 3.00 Fog/Mist CLR 60.8 60.1 98% 29.77 0.0
15 04:15 Calm 3.00 Fog/Mist CLR 61 60.4 98% 29.77 0.0
15 03:55 Calm 5.00 Fog/Mist CLR 62.4 61.9 98% 29.77 0.0
15 03:35 Calm 2.00 Fog/Mist CLR 62.4 61.9 98% 29.77 0.0
15 03:15 Calm 4.00 Fog/Mist CLR 62.6 62.1 98% 29.77 0.0
15 02:55 Calm 1.25 Fog/Mist VV007 63.3 62.8 98% 29.77 0.0
15 02:35 Calm 4.00 Fog/Mist CLR 64 63.5 98% 29.78 0.0
15 02:15 Calm 0.75 Fog/Mist VV005 64 63.5 98% 29.78 0.0
15 01:55 Calm 1.75 Fog/Mist VV007 64.6 63.9 71.6 64.6 98% 29.78 0.0 0.02
15 01:35 Calm 4.00 Fog/Mist CLR 65.1 64.4 98% 29.79 0.0
15 01:15 Calm 7.00 Fair CLR 65.8 65.3 98% 29.8 0.0
Date Time (edt) Wind (mph) Vis. (mi.) Weather Sky Cond. Air Dwpt Max. Min. Relative Humidity Wind Chill (°F) Heat Index (°F) altimeter (in) sea level (mb) 1 hr 3 hr 6 hr
6 hour
Temperature (ºF) Pressure Precipitation (in)